Theta_e
315 316 317 317 317 318 318 319 320 320 321 320 320 319 319 319 318 318 316 315 313 313 313 315 316 318 306 300 300 308 322 317 317 313 316 315 312 310 305 306 307 303 301 301 303 301 299
313 314 316 316 317 317 317 317 318 318 319 320 320 319 318 318 318 317 316 315 313 312 312 314 317 317 300 296 307 305 306 312 318 318 316 316 313 311 302 301 303 302 299 296 297 297 298
311 312 314 316 316 317 317 317 317 317 318 319 320 319 318 318 317 316 316 315 313 311 312 315 318 312 300 300 303 304 311 313 314 317 314 313 312 309 304 302 302 300 295 296 296 295 294
310 310 311 314 315 315 315 316 317 316 317 317 319 319 317 317 316 315 315 314 312 312 314 316 318 302 298 306 305 305 307 313 315 316 313 311 311 305 302 303 299 296 294 292 295 294 294
309 309 310 311 313 314 314 314 314 314 315 316 318 318 317 316 315 314 314 312 311 314 316 316 301 298 296 309 303 304 305 308 311 311 312 315 310 302 302 298 292 292 288 288 291 295 292
308 309 310 310 310 312 313 313 312 312 313 314 316 317 317 316 315 314 312 310 313 312 307 305 303 294 300 298 301 303 304 309 307 307 307 306 302 297 296 293 287 289 288 289 289 293 291
306 308 309 309 309 311 311 312 312 311 312 313 314 316 317 316 315 313 306 304 300 298 302 295 296 296 298 302 303 302 303 308 306 303 299 300 298 296 299 294 295 293 290 289 289 292 291
307 307 308 308 309 309 309 309 312 311 311 312 312 314 315 315 314 311 305 301 302 302 295 302 299 299 301 300 299 301 304 302 301 296 299 298 294 297 301 297 296 292 289 287 288 291 293
307 306 307 307 308 308 309 308 310 310 311 311 311 312 314 314 312 301 301 303 307 306 293 299 297 296 298 300 297 297 301 300 297 296 295 294 293 296 300 296 291 289 289 288 288 288 287
306 306 306 306 307 308 308 308 309 309 310 311 310 312 312 310 303 295 300 305 305 305 287 291 294 296 298 299 296 298 300 299 297 295 293 291 294 293 292 293 292 287 293 290 288 286 282
305 306 306 306 306 308 308 308 308 308 309 310 310 311 311 308 304 294 301 303 306 300 275 293 292 297 296 295 294 296 300 300 294 294 295 291 290 291 290 291 292 289 292 290 288 283 282
304 305 305 305 306 307 308 308 308 308 308 309 310 310 310 306 297 299 300 304 298 283 274 289 291 291 292 294 294 295 297 300 298 293 292 290 293 292 291 292 292 293 291 289 287 285 279
304 303 304 305 305 306 306 308 307 307 307 307 309 309 309 312 297 301 303 295 282 275 289 287 287 290 290 289 291 292 293 291 290 288 287 290 290 291 294 290 292 291 287 279 278 278 279
302 304 303 304 305 305 306 307 307 307 307 307 307 308 311 314 306 307 300 289 272 283 285 290 288 289 288 290 289 291 291 289 292 292 286 285 284 289 293 291 289 288 287 281 278 277 280
301 302 303 303 304 305 306 307 307 307 306 307 307 307 309 310 314 310 296 276 280 283 288 288 287 285 285 289 289 289 287 289 291 292 287 285 285 290 292 292 291 289 286 290 285 283 282
301 301 302 303 304 304 305 306 306 306 306 307 300 304 308 312 312 306 292 284 286 291 290 288 284 286 283 286 287 286 287 291 290 294 295 289 283 288 290 292 293 291 294 285 282 277 278
301 301 301 302 303 304 304 305 306 306 306 306 302 298 308 309 313 301 287 286 289 295 291 288 286 285 286 286 287 285 287 291 293 294 294 290 287 285 288 287 287 289 288 288 286 281 277
302 301 301 302 302 303 304 305 306 306 305 302 300 292 308 311 298 297 289 291 295 294 293 290 290 288 287 288 287 287 288 290 294 293 290 292 286 282 285 290 290 290 289 288 279 280 281
301 301 300 300 301 302 303 304 305 305 305 297 296 298 308 307 289 292 296 294 296 291 290 290 289 290 290 288 285 288 290 293 294 291 292 291 284 280 283 286 289 284 287 286 283 284 283
301 301 300 300 300 302 303 304 305 305 305 300 294 287 297 300 298 296 294 293 290 295 291 291 290 290 288 286 289 287 288 293 295 292 300 295 286 284 281 283 284 281 284 282 283 279 281
301 301 301 301 300 301 302 303 304 305 305 300 294 289 296 286 290 295 297 295 293 289 291 291 288 288 288 285 286 286 288 290 293 297 292 289 284 284 285 289 286 286 284 285 283 285 281
301 301 301 301 300 301 302 303 304 304 305 295 290 293 299 293 295 295 295 294 293 292 289 288 288 289 288 287 288 286 288 288 288 290 289 289 284 285 283 288 289 287 288 286 286 285 285
300 300 300 300 300 300 301 303 303 304 302 293 298 300 295 294 292 293 292 295 294 296 293 292 292 289 288 290 291 290 291 291 291 290 287 287 284 282 281 284 282 280 285 287 287 287 286
300 299 299 300 300 300 301 302 303 304 302 294 299 299 294 288 292 292 296 296 296 295 292 295 294 290 292 295 294 293 292 292 291 290 290 285 283 280 277 280 271 285 288 289 287 288 289
299 299 299 299 299 300 301 302 302 303 304 295 298 296 292 286 294 292 295 295 298 299 297 295 294 294 296 292 285 284 282 284 286 288 289 289 283 278 276 277 282 285 285 284 284 283 287
298 298 298 299 300 300 301 302 302 303 303 296 296 301 294 287 290 297 294 296 293 294 295 295 297 296 292 286 282 276 278 282 281 283 289 288 286 282 278 275 273 283 287 288 286 280 287
298 298 298 299 299 300 300 301 302 303 302 296 294 301 296 287 295 297 292 294 300 298 293 293 293 293 290 279 277 279 280 285 281 281 281 283 280 277 275 276 282 287 289 288 279 281 288
297 297 298 299 299 299 300 301 301 302 302 299 294 301 295 290 293 298 299 297 300 299 292 295 291 288 284 280 282 280 281 283 282 284 283 283 279 275 276 272 276 290 287 284 286 287 289
297 297 298 298 298 299 300 300 301 302 302 300 293 299 301 293 292 298 299 302 302 305 301 294 293 291 291 284 282 281 280 280 283 280 285 282 284 283 283 283 289 289 286 288 290 290 289
Wind_Speed
12 14 14 14 14 14 17 17 17 15 12 11 12 14 15 17 17 18 19 18 19 20 20 19 18 17 7 6 2 7 14 10 8 7 4 6 7 6 6 6 10 10 4 6 7 10 5
13 13 14 14 14 14 15 15 15 16 16 13 12 14 14 16 17 19 20 21 19 20 20 17 14 17 1 5 6 9 9 4 5 5 4 3 8 15 11 6 6 6 13 5 6 5 4
12 13 13 13 13 14 14 14 14 15 16 15 14 13 14 16 17 19 21 22 21 20 18 14 10 3 3 4 5 10 8 6 5 4 9 4 6 7 8 13 3 6 11 7 5 4 2
10 11 13 13 12 12 13 15 15 15 17 16 14 15 15 16 17 20 23 24 23 18 14 10 7 1 1 2 5 7 8 11 10 14 14 7 10 11 7 10 6 5 6 5 2 2 2
10 11 11 12 13 13 13 12 14 16 17 18 16 14 17 16 18 21 24 26 22 11 9 8 2 3 1 9 6 7 5 6 5 7 9 9 9 7 6 9 6 6 3 2 1 5 3
10 11 11 11 12 12 12 13 13 15 16 17 18 15 16 17 19 21 28 22 12 8 4 1 2 6 7 3 5 6 4 3 5 4 6 9 8 4 4 3 5 5 4 2 5 5 4
8 10 10 11 11 12 13 14 14 14 15 17 18 17 15 17 20 21 13 7 9 8 10 2 5 2 4 8 3 6 4 2 4 9 4 3 7 7 14 4 5 7 5 5 2 3 5
7 8 11 12 12 12 12 14 14 14 15 16 17 17 16 16 19 20 3 6 4 3 7 4 4 3 4 2 4 7 6 4 5 5 4 6 3 1 3 3 7 5 3 3 3 3 6
8 8 9 12 13 13 14 14 13 14 14 15 16 17 17 16 19 5 4 4 7 2 1 7 2 2 4 3 1 4 5 2 5 2 5 7 4 3 6 5 3 3 5 5 5 4 2
9 8 8 9 13 13 13 14 13 14 15 15 16 16 16 20 5 5 2 7 6 3 6 6 2 2 1 2 2 2 3 2 5 4 5 5 0 6 4 4 4 3 7 6 8 5 2
10 9 9 8 10 12 12 12 12 13 14 14 15 15 15 8 2 3 6 7 6 4 5 5 1 2 2 4 1 2 4 4 4 3 4 5 3 5 4 5 4 2 5 6 4 4 3
9 10 9 9 10 10 12 11 11 12 12 13 13 14 15 2 1 5 8 5 5 11 7 1 1 2 4 3 3 4 4 7 5 5 5 2 1 2 2 2 2 6 6 8 5 3 2
9 10 9 9 10 11 11 11 11 12 13 13 13 14 10 3 2 6 5 6 8 6 4 3 3 3 2 2 2 3 4 3 4 5 0 3 2 3 2 4 3 7 7 4 4 4 7
11 10 9 9 10 12 12 10 11 12 14 14 14 14 3 4 3 6 4 7 5 6 6 1 3 3 4 3 1 1 2 1 0 4 4 5 2 1 3 2 6 3 5 7 6 4 4
12 11 11 10 11 12 13 11 10 11 14 15 17 2 2 4 4 1 4 4 10 8 6 8 3 4 3 1 3 2 3 4 6 6 6 5 1 3 4 2 2 4 3 3 7 3 2
14 12 10 12 10 12 12 11 10 10 14 13 4 4 3 3 5 4 3 7 6 5 4 3 8 3 6 6 4 5 5 4 3 5 2 5 4 2 2 1 4 1 4 4 4 3 4
13 13 12 12 10 10 12 11 10 9 12 13 3 3 0 5 4 5 5 6 5 6 4 6 6 5 5 7 6 5 3 2 1 2 3 5 5 3 2 1 5 2 1 5 4 4 5
13 12 13 12 12 12 12 12 10 7 10 6 3 4 1 3 3 4 5 4 3 3 3 2 5 4 7 7 5 5 6 3 3 5 6 1 6 3 1 2 1 2 4 5 7 5 2
14 14 14 15 13 13 13 12 10 6 4 3 3 3 2 4 4 2 2 5 4 3 5 6 4 3 3 7 4 4 4 0 3 3 7 6 2 3 3 5 5 2 2 5 4 3 6
16 15 16 16 14 15 14 12 10 7 5 2 4 2 0 2 3 7 9 6 6 3 3 4 5 4 4 3 4 6 4 1 3 3 4 8 3 6 8 5 5 2 4 2 5 3 4
18 17 17 16 15 16 15 14 11 8 5 2 3 4 3 5 4 4 11 7 10 7 3 3 2 5 8 4 3 3 2 2 3 2 4 4 3 3 2 2 3 3 3 7 8 7 7
20 19 18 16 16 15 16 15 13 9 8 3 4 3 2 1 7 14 7 8 7 14 6 5 5 6 5 8 9 9 7 4 4 2 3 3 2 2 2 2 2 4 8 9 7 2 8
22 20 19 17 16 16 17 15 15 11 9 3 3 3 2 3 4 10 8 10 12 6 5 5 7 7 5 5 6 1 3 4 5 8 4 3 6 4 3 3 2 7 9 6 5 5 6
23 22 20 18 18 17 17 17 17 14 12 3 2 3 4 3 8 12 10 15 13 9 6 3 2 8 5 8 7 7 10 9 8 6 4 6 5 3 2 4 1 7 3 4 7 6 8
23 22 21 19 19 18 17 18 18 14 13 4 2 1 2 5 6 6 9 9 6 2 3 5 3 5 12 6 6 5 7 7 5 6 4 3 6 4 5 4 7 6 1 3 5 3 2
23 22 22 19 18 18 18 18 17 14 13 3 3 2 1 4 4 2 7 6 6 6 4 4 4 2 5 5 5 5 5 6 3 2 4 6 6 6 3 4 5 7 4 1 2 5 1
23 22 21 20 19 19 18 18 16 14 13 4 3 5 2 3 6 5 4 8 6 4 5 2 2 4 3 3 4 4 3 5 6 8 5 3 3 6 2 2 8 7 6 2 4 8 0
22 22 21 19 19 19 17 16 14 15 13 6 2 4 5 3 8 7 7 0 6 7 7 4 3 4 4 5 5 4 4 6 4 5 7 8 7 4 4 3 8 6 4 7 6 2 2
21 21 20 19 20 18 19 16 14 16 14 9 3 3 3 3 5 8 13 11 9 8 10 3 4 4 7 6 1 4 3 2 6 4 1 3 8 8 10 9 5 4 3 2 4 5 3
Wind_Direction
11 5 2 9 14 15 14 11 5 352 336 339 337 334 338 336 333 330 329 330 328 324 319 322 326 323 342 35 326 284 324 316 132 121 72 110 68 102 97 113 62 73 93 39 96 98 97
6 2 2 2 6 12 11 3 7 4 351 337 334 333 336 332 330 329 326 327 324 317 317 318 324 317 354 67 295 318 327 18 51 78 49 56 133 117 84 54 62 87 92 79 36 58 106
7 2 0 2 2 6 8 3 5 1 1 349 334 333 330 330 330 326 324 322 318 314 311 310 318 347 39 209 334 319 25 24 8 84 91 40 132 82 127 97 44 90 88 66 26 358 97
351 352 356 357 357 4 8 5 2 4 359 356 344 332 329 328 331 326 321 316 312 307 303 304 300 34 228 304 309 2 351 51 53 70 93 86 74 89 91 125 65 75 60 92 250 214 136
343 339 344 348 354 354 360 5 3 2 359 357 350 338 330 329 331 326 319 315 305 301 287 288 28 50 285 331 27 318 9 100 83 57 63 74 69 78 40 104 66 23 147 113 199 174 115
345 344 342 341 346 349 357 0 2 359 354 355 354 343 336 330 329 325 322 308 296 333 358 28 64 47 356 316 307 333 335 23 89 74 47 50 60 75 45 70 161 161 135 193 181 201 100
337 341 339 342 343 350 352 354 0 355 355 355 352 349 337 335 327 327 343 5 13 355 35 117 268 244 300 294 303 352 355 22 50 47 78 37 99 186 185 168 116 122 134 160 234 195 125
331 342 340 340 339 343 349 351 356 354 351 353 347 355 341 337 326 324 359 64 63 244 323 301 260 271 246 302 2 333 6 76 62 112 100 38 86 158 69 91 103 116 107 202 79 128 158
320 326 336 332 329 332 338 343 344 348 350 349 346 350 346 331 324 16 345 65 316 291 175 301 260 272 279 46 159 298 20 63 95 86 110 127 180 88 160 302 20 112 164 190 146 131 77
313 323 326 327 325 330 335 338 344 346 349 351 343 346 349 324 54 322 345 324 314 238 63 280 252 297 47 94 318 292 23 101 43 158 122 113 146 146 127 261 140 249 183 132 131 105 217
310 313 312 318 322 323 330 334 338 344 347 346 343 339 343 24 274 343 303 318 313 48 44 285 238 289 30 131 323 345 328 43 124 123 92 223 128 128 138 206 203 235 123 118 104 73 80
289 303 307 312 316 317 320 326 336 337 338 339 337 329 335 98 38 269 310 326 39 44 258 263 193 131 98 31 18 329 22 50 125 73 27 89 120 74 123 84 66 168 72 49 60 70 1
303 289 297 304 307 310 311 318 330 331 331 331 326 321 320 313 249 321 316 40 46 128 279 213 188 140 115 122 80 50 357 52 136 97 291 5 10 352 72 93 45 62 57 11 359 9 230
292 300 296 295 295 301 303 308 321 327 325 322 321 319 275 255 116 358 32 55 99 236 213 303 115 89 155 153 98 86 74 209 244 96 117 144 280 175 6 118 170 149 148 155 210 195 268
275 287 299 299 298 296 298 301 312 324 320 325 322 282 261 265 169 87 79 91 201 206 187 152 73 111 185 207 135 94 144 235 219 174 142 133 217 337 30 14 88 188 188 166 104 21 55
273 275 285 294 291 292 292 296 305 320 318 330 323 298 241 121 111 90 89 221 226 209 162 126 167 148 173 189 138 147 177 218 238 190 131 190 96 13 335 44 22 97 139 74 355 151 251
259 269 276 281 291 290 289 289 295 310 323 326 284 261 92 123 102 88 198 228 238 239 181 150 170 145 184 176 149 165 218 280 158 112 80 136 105 286 68 158 187 57 33 47 108 122 178
254 258 269 276 280 285 283 281 282 300 330 339 275 236 74 208 144 195 157 200 242 238 181 182 118 120 165 169 144 185 213 239 21 162 142 83 127 155 160 67 351 188 173 142 119 247 239
244 247 253 265 271 275 273 270 268 280 320 312 262 264 25 293 162 208 66 248 249 208 195 170 153 148 178 167 147 179 168 240 32 146 156 185 5 64 351 12 347 211 92 96 105 86 200
233 239 246 252 261 266 265 256 252 253 277 253 286 243 83 188 341 144 178 221 253 226 208 150 136 110 110 115 43 174 152 15 7 86 58 94 125 158 184 198 147 179 188 121 127 134 188
233 235 240 244 252 258 260 254 243 241 236 226 247 251 219 199 216 171 189 169 199 254 231 199 71 166 151 122 94 157 137 117 63 30 66 97 151 116 211 121 197 204 162 180 188 203 174
230 231 238 238 244 251 258 249 236 232 217 226 274 260 238 255 155 196 189 202 180 213 178 236 160 180 150 150 175 193 146 188 186 64 89 27 145 93 20 14 238 284 247 216 224 246 259
229 229 230 234 239 245 250 243 237 215 192 220 252 267 246 161 177 178 192 172 196 239 266 220 166 123 148 209 167 151 120 111 158 144 121 107 125 102 241 8 23 313 245 211 199 203 171
230 228 230 230 233 240 244 238 233 222 200 184 308 312 291 248 192 197 181 202 202 157 261 18 141 128 195 118 106 55 55 66 68 50 107 127 101 89 186 40 344 240 230 196 205 230 216
228 226 229 232 235 236 238 234 231 220 220 198 251 289 354 282 224 172 184 188 198 141 231 325 282 300 153 72 71 54 357 26 4 27 53 96 116 87 133 205 289 309 329 143 176 294 143
226 223 225 228 232 235 237 230 225 214 216 183 240 172 233 318 259 298 181 176 162 176 163 299 340 48 42 87 84 131 176 181 204 84 60 74 68 111 153 143 226 235 255 256 83 293 278
223 222 222 225 227 233 232 223 220 203 206 164 236 181 147 260 274 319 189 181 128 131 139 265 247 223 37 97 96 145 197 167 161 165 171 93 35 152 144 211 288 239 228 357 92 232 126
220 219 220 223 226 231 219 210 213 200 195 179 230 200 161 245 274 304 329 326 148 161 145 212 48 324 39 74 122 200 135 207 120 169 176 162 140 182 81 81 278 189 88 163 206 170 124
215 216 218 219 224 220 207 204 221 203 195 174 237 206 164 240 281 319 276 275 268 205 155 140 206 223 187 92 128 110 111 101 152 211 41 201 178 177 176 210 234 224 198 117 150 139 135